Flag for Austria Weather past 2 weeks in Waidhofen an der Ybbs, Lower Austria, Austria

Now
57 °F

Cool.


Feels Like: 57 °F
Forecast: 48 / 74 °F
Wind: 1 mph from Northeast

Location: Amstetten

Current Time: May 30, 2015 at 6:40:13 AM

Latest Report: May 30, 2015 at 6:00 AM


Visibility: N/A

Pressure: 29.92 "Hg

Humidity: 92%

Dew point: 54 °F

Location of Waidhofen an der YbbsLocation

Historic Weather in Waidhofen an der Ybbs — Graph

°F

Waidhofen an der Ybbs temperature yesterday

Maximum temperature yesterday: 76 °F (at 4:00 PM)
Minimum temperature yesterday: 44 °F (at 5:00 AM)
Average temperature yesterday: 62 °F

Past Weeks' High & Low Weather Summary

 TemperatureHumidityPressure
High76 °F (May 29, 4:00 PM)100% (May 20, 9:00 AM)30.27 "Hg (May 20, 9:00 AM)
Low44 °F (May 29, 5:00 AM)31% (May 29, 3:00 PM)29.71 "Hg (May 18, 8:00 PM)
Average56 °F80%30.03 "Hg
* Reported May 15 4:00 AM — May 30 4:00 AM, Waidhofen an der Ybbs, Weather by CustomWeather, © 2015

Note: Actual official high and low records may vary slightly from our data, if they occured in-between our weather recording intervals... More about our weather records

Advertising

Waidhofen an der Ybbs weather history for previous 24 hours

 ConditionsComfort  
Time TempWeatherWind HumidityBarometerVisibility
4:00 AM
Sat, May 30
59 °FCool.2 mph81%29.92 "HgN/A
3:00 AM60 °FCool.1 mph75%29.91 "HgN/A
2:00 AM62 °FCool.1 mph65%29.88 "HgN/A
1:00 AM58 °FCool.2 mph75%29.88 "HgN/A
12:00 AM57 °FCool.No wind81%29.83 "HgN/A
11:00 PM
Fri, May 29
61 °FCool.1 mph71%29.81 "HgN/A
10:00 PM63 °FMild.2 mph63%29.80 "HgN/A
9:00 PM67 °FMild.1 mph52%29.78 "HgN/A
8:00 PM72 °FMild.2 mph41%29.78 "HgN/A
7:00 PM74 °FMild.2 mph37%29.79 "HgN/A
6:00 PM74 °FMild.1 mph47%29.81 "HgN/A
5:00 PM75 °FMild.1 mph37%29.83 "HgN/A
4:00 PM76 °FMild.2 mph31%29.85 "HgN/A
3:00 PM75 °FMild.2 mph31%29.86 "HgN/A
2:00 PM74 °FMild.2 mph35%29.89 "HgN/A
1:00 PM71 °FMild.No wind44%29.92 "HgN/A
12:00 PM70 °FMild.1 mph47%29.94 "HgN/A
11:00 AM66 °FMild.1 mph51%29.97 "HgN/A
10:00 AM62 °FCool.1 mph61%29.98 "HgN/A
9:00 AM58 °FPassing clouds.15 mph75%30.00 "Hg1 mi
8:00 AM52 °FScattered clouds.1 mph86%30.01 "HgN/A
7:00 AM49 °FCool.No wind91%30.01 "HgN/A
6:00 AM45 °FQuite cool.No wind97%30.02 "HgN/A
Weather by CustomWeather, © 2015

See weather overviewHow to use our weather pages